TimePDT,TemperatureF,Dew PointF,Humidity,Sea Level PressureIn,VisibilityMPH,Wind Direction,Wind SpeedMPH,Gust SpeedMPH,PrecipitationIn,Events,Conditions,WindDirDegrees,DateUTC
12:53 AM,80.1,44.1,28,29.78,10.0,WSW,6.9,-,N/A,,Clear,240,2013-05-14 07:53:00
1:53 AM,81.0,41.0,24,29.77,10.0,WSW,9.2,-,N/A,,Clear,250,2013-05-14 08:53:00
2:53 AM,77.0,44.1,31,29.77,10.0,West,8.1,-,N/A,,Clear,260,2013-05-14 09:53:00
3:53 AM,75.9,45.0,33,29.77,10.0,WSW,6.9,-,N/A,,Clear,250,2013-05-14 10:53:00
4:53 AM,75.9,42.1,30,29.77,10.0,West,6.9,-,N/A,,Clear,270,2013-05-14 11:53:00
5:53 AM,75.9,41.0,29,29.79,10.0,West,6.9,-,N/A,,Clear,260,2013-05-14 12:53:00
6:53 AM,84.0,37.0,19,29.82,10.0,South,5.8,-,N/A,,Clear,180,2013-05-14 13:53:00
7:53 AM,81.0,52.0,36,29.83,10.0,SE,9.2,-,N/A,,Clear,140,2013-05-14 14:53:00
8:53 AM,86.0,57.0,37,29.85,10.0,ESE,8.1,-,N/A,,Clear,120,2013-05-14 15:53:00
9:53 AM,90.0,57.0,33,29.84,10.0,SE,9.2,-,N/A,,Clear,130,2013-05-14 16:53:00
10:53 AM,93.9,51.1,23,29.84,10.0,SE,9.2,-,N/A,,Clear,130,2013-05-14 17:53:00
11:53 AM,98.1,46.9,18,29.83,10.0,South,6.9,-,N/A,,Clear,170,2013-05-14 18:53:00
12:53 PM,102.0,35.1,10,29.80,10.0,South,6.9,-,N/A,,Clear,170,2013-05-14 19:53:00
1:53 PM,104.0,28.9,7,29.77,10.0,Variable,3.5,-,N/A,,Clear,0,2013-05-14 20:53:00
2:53 PM,105.1,28.9,7,29.75,10.0,South,4.6,-,N/A,,Clear,190,2013-05-14 21:53:00
3:53 PM,105.1,32.0,8,29.73,10.0,WSW,17.3,-,N/A,,Clear,240,2013-05-14 22:53:00
4:53 PM,102.9,35.1,10,29.72,10.0,WSW,20.7,32.2,N/A,,Clear,250,2013-05-14 23:53:00
5:53 PM,98.1,33.1,10,29.72,10.0,WSW,17.3,-,N/A,,Clear,250,2013-05-15 00:53:00
6:53 PM,93.9,28.0,10,29.73,10.0,WSW,17.3,26.5,N/A,,Clear,240,2013-05-15 01:53:00
7:53 PM,90.0,21.0,8,29.74,10.0,West,20.7,28.8,N/A,,Clear,260,2013-05-15 02:53:00
8:53 PM,88.0,15.1,7,29.77,10.0,WNW,20.7,27.6,N/A,,Clear,290,2013-05-15 03:53:00
9:53 PM,86.0,25.0,11,29.78,10.0,West,18.4,26.5,N/A,,Clear,270,2013-05-15 04:53:00
10:53 PM,82.0,24.1,12,29.81,10.0,NW,9.2,20.7,N/A,,Clear,310,2013-05-15 05:53:00
11:53 PM,79.0,25.0,14,29.82,10.0,NW,8.1,-,N/A,,Clear,310,2013-05-15 06:53:00